TimeEST,TemperatureF,Dew PointF,Humidity,Sea Level PressureIn,VisibilityMPH,Wind Direction,Wind SpeedMPH,Gust SpeedMPH,PrecipitationIn,Events,Conditions,WindDirDegrees,DateUTC
12:54 AM,14.0,8.1,77,30.23,7.0,WSW,10.4,-,0.00,Snow,Light Snow,240,2014-02-09 05:54:00
1:54 AM,14.0,9.0,80,30.22,5.0,SW,6.9,-,0.00,Snow,Light Snow,220,2014-02-09 06:54:00
2:54 AM,10.9,7.0,84,30.21,8.0,SW,5.8,-,0.01,,Overcast,230,2014-02-09 07:54:00
3:54 AM,9.0,5.0,84,30.20,9.0,SW,6.9,-,N/A,,Mostly Cloudy,230,2014-02-09 08:54:00
4:54 AM,8.1,5.0,87,30.20,10.0,SW,6.9,-,N/A,,Mostly Cloudy,220,2014-02-09 09:54:00
5:54 AM,8.1,3.9,83,30.19,10.0,SW,5.8,-,N/A,,Mostly Cloudy,220,2014-02-09 10:54:00
6:54 AM,8.1,3.9,83,30.18,10.0,SSW,5.8,-,N/A,,Mostly Cloudy,210,2014-02-09 11:54:00
7:01 AM,8.6,3.2,79,30.14,10.0,SW,5.8,-,N/A,,Mostly Cloudy,230,2014-02-09 12:01:00
7:42 AM,6.8,3.2,85,30.15,9.0,SW,6.9,-,N/A,,Mostly Cloudy,230,2014-02-09 12:42:00
7:54 AM,7.0,3.0,84,30.19,9.0,SW,6.9,-,N/A,,Mostly Cloudy,220,2014-02-09 12:54:00
8:54 AM,10.0,5.0,80,30.19,10.0,WSW,6.9,-,N/A,,Overcast,240,2014-02-09 13:54:00
9:54 AM,12.0,6.1,77,30.15,8.0,South,4.6,-,0.00,Snow,Light Snow,180,2014-02-09 14:54:00
10:54 AM,15.1,7.0,70,30.12,9.0,South,5.8,-,0.00,Snow,Light Snow,190,2014-02-09 15:54:00
11:42 AM,15.8,8.6,73,30.05,1.5,Calm,Calm,-,0.00,Snow,Light Snow,0,2014-02-09 16:42:00
11:52 AM,17.6,10.4,73,30.04,1.2,Calm,Calm,-,0.00,Snow,Light Snow,0,2014-02-09 16:52:00
11:54 AM,17.1,10.9,77,30.08,1.2,Calm,Calm,-,0.00,Snow,Light Snow,0,2014-02-09 16:54:00
12:41 PM,17.6,12.2,79,30.00,0.8,SE,3.5,-,0.01,Snow,Light Snow,140,2014-02-09 17:41:00
12:54 PM,18.0,12.9,81,30.04,1.0,Calm,Calm,-,0.01,Snow,Light Snow,0,2014-02-09 17:54:00
1:30 PM,17.6,12.2,79,29.97,0.8,ESE,4.6,-,0.01,Snow,Light Snow,110,2014-02-09 18:30:00
1:46 PM,17.6,14.0,86,29.96,1.0,East,4.6,-,0.01,Snow,Light Snow,100,2014-02-09 18:46:00
1:54 PM,19.0,14.0,81,30.00,1.0,East,3.5,-,0.02,Snow,Light Snow,80,2014-02-09 18:54:00
2:42 PM,19.4,14.0,80,29.94,0.8,East,4.6,-,0.01,Snow,Light Snow,100,2014-02-09 19:42:00
2:54 PM,19.0,15.1,85,29.99,0.8,East,3.5,-,0.01,Snow,Light Snow,90,2014-02-09 19:54:00
3:54 PM,19.0,15.1,85,29.99,0.8,Calm,Calm,-,0.02,Snow,Light Snow,0,2014-02-09 20:54:00
4:28 PM,19.4,15.8,86,29.94,0.8,Calm,Calm,-,0.01,Snow,Light Snow,0,2014-02-09 21:28:00
4:46 PM,19.4,17.6,93,29.94,1.5,Calm,Calm,-,0.02,Snow,Light Snow,0,2014-02-09 21:46:00
4:54 PM,19.9,15.1,81,29.99,2.0,Calm,Calm,-,0.02,Snow,Light Snow,0,2014-02-09 21:54:00
5:15 PM,19.4,14.0,80,29.94,3.0,Calm,Calm,-,0.00,Snow,Light Snow,0,2014-02-09 22:15:00
5:32 PM,19.4,14.0,80,29.94,1.5,Calm,Calm,-,0.00,Snow,Light Snow,0,2014-02-09 22:32:00
5:45 PM,19.4,14.0,80,29.95,3.0,Calm,Calm,-,0.00,Snow,Light Snow,0,2014-02-09 22:45:00
5:54 PM,19.0,15.1,85,30.00,2.5,Calm,Calm,-,0.00,Snow,Light Snow,0,2014-02-09 22:54:00
6:54 PM,19.0,15.1,85,30.02,2.0,WNW,4.6,-,0.00,Snow,Light Snow,290,2014-02-09 23:54:00
7:12 PM,19.4,15.8,86,29.98,2.5,West,4.6,-,0.00,Snow,Light Snow,270,2014-02-10 00:12:00
7:39 PM,19.4,15.8,86,29.98,3.0,West,5.8,-,0.00,Snow,Light Snow,270,2014-02-10 00:39:00
7:54 PM,18.0,14.0,84,30.03,3.0,West,8.1,-,0.00,Snow,Light Snow,270,2014-02-10 00:54:00
8:54 PM,17.1,12.9,84,30.05,3.0,West,11.5,-,0.00,Snow,Light Snow,270,2014-02-10 01:54:00
9:03 PM,17.6,12.2,79,30.01,2.0,West,10.4,-,0.00,Snow,Light Snow,260,2014-02-10 02:03:00
9:12 PM,17.6,14.0,86,30.01,1.5,West,10.4,-,0.00,Snow,Light Snow,260,2014-02-10 02:12:00
9:54 PM,18.0,14.0,84,30.08,1.0,West,12.7,-,0.01,Snow,Light Snow,270,2014-02-10 02:54:00
10:29 PM,17.6,14.0,86,30.04,0.8,West,8.1,-,0.00,Snow,Light Snow,260,2014-02-10 03:29:00
10:36 PM,17.6,14.0,86,30.04,1.5,West,10.4,-,0.01,Snow,Light Snow,270,2014-02-10 03:36:00
10:54 PM,18.0,14.0,84,30.09,1.5,West,11.5,-,0.01,Snow,Light Snow,260,2014-02-10 03:54:00
11:16 PM,17.6,12.2,79,30.05,3.0,West,16.1,-,0.00,Snow,Light Snow,270,2014-02-10 04:16:00
11:29 PM,17.6,12.2,79,30.05,9.0,West,13.8,-,0.00,Snow,Light Snow,260,2014-02-10 04:29:00
11:54 PM,15.1,10.0,80,30.10,9.0,West,11.5,-,0.00,Snow,Light Snow,260,2014-02-10 04:54:00